Regional Weather Roundup
Issued by NWS State College, PA

Home | Current Version | Previous Version | Text Only | Print | Product List | Glossary On
Versions: 1 2 3 4 5 6 7 8 9 10 11 12 13 14 15 16 17 18 19 20 21 22 23 24 25 26 27 28 29 30 31 32 33 34 35 36 37 38 39 40 41 42 43 44 45 46 47 48 49 50
000
ASUS41 KCTP 120410
RWRCTP

REGIONAL WEATHER ROUNDUP
NATIONAL WEATHER SERVICE STATE COLLEGE PA
1100 PM EST THU FEB 11 2016

Note: "fair" indicates few or no clouds below 12,000 feet with no
significant weather and/or obstructions to visibility.

* = STATION THAT DOES NOT REPORT PRECIPITATION /E.G. RAIN...SNOW...ETC/
    THUNDER OR FOG.

PAZ002>004-007>009-013>016-020>023-029>032-120500-
WESTERN PENNSYLVANIA

CITY           SKY/WX    TMP DP  RH WIND       PRES   REMARKS
ERIE           CLOUDY    17   2  51 W6        30.24F WCI   9
MEADVILLE      CLOUDY    10   4  76 SW5       30.19S WCI   2
FRANKLIN*      CLEAR      7   0  72 SW6       30.20F WCI  -3
NEW CASTLE     FAIR       4   2  91 SW3       30.25S
BEAVER COUNTY  NOT AVBL
BUTLER*        CLEAR      9   3  78 SW3       30.26S
PITTSBURGH INT PTCLDY     8  -2  63 W3        30.24S
PITTSBURGH     CLEAR     12  -1  56 W7        30.23F WCI   1
INDIANA*       CLOUDY    10   7  85 NW5       30.24F WCI   2
LATROBE        CLEAR      7  -2  66 CALM      30.26S
WASHINGTON CO* CLEAR      3   0  85 CALM      30.24F
$$

PAZ004>006-010>012-017>019-024>028-033>037-041-042-045-046-049>053-120500-
CENTRAL PENNSYLVANIA

CITY           SKY/WX    TMP DP  RH WIND       PRES   REMARKS
BRADFORD       LGT SNOW   8   3  80 W6        30.09S WCI  -2
DUBOIS         CLOUDY     5   3  91 SW6       30.14S WCI  -6
CLEARFIELD     CLEAR      8   1  73 W6        30.18R WCI  -2
JOHNSTOWN      PTCLDY     9  -2  61 W13       30.11S WCI  -7
ALTOONA        CLEAR     12   3  67 NW12      30.19S WCI  -2
STATE COLLEGE  CLEAR     11   3  68 W12       30.20S WCI  -3
WILLIAMSPORT   PTCLDY    15   4  61 NW5       30.21S WCI   8
SELINSGROVE    CLEAR     16  -3  43 VRB5      30.24R WCI   9
FT INDIANTOWN  CLEAR     17  -3  42 W10       30.23R WCI   4
CAPITAL CITY   PTCLDY    18   0  45 W9        30.27R WCI   7
HARRISBURG     PTCLDY    20   5  52 W13       30.26R WCI   7
YORK           MOCLDY    14   1  56 W9        30.25R WCI   2
$$

PAZ038>040-043-044-047-048-054-055-060>062-067>071-120500-
EASTERN PENNSYLVANIA

CITY           SKY/WX    TMP DP  RH WIND       PRES   REMARKS
SCRANTON       PTCLDY    13  -1  54 NW8G16    30.15R WCI   2
MOUNT POCONO   MOCLDY     8  -3  61 NW12G22   30.03R WCI  -7
ALLENTOWN      PTCLDY    19   5  54 W9G18     30.20R WCI   8
QUAKERTOWN*    PTCLDY    18   0  45 NW6       30.20R WCI   9
READING        CLEAR     18  -2  41 NW13      30.23R WCI   5
LANCASTER      CLEAR     12   1  61 W9        30.25R WCI   0
COATESVILLE    CLEAR     14   3  62 W5G14     30.23R WCI   6
POTTSTOWN      CLEAR     17  -1  45 W8        30.24R WCI   7
BLUE BELL        N/A     19   0  42 W8        30.23R WCI   9
DOYLESTOWN     PTCLDY    17  -2  43 W9G17     30.20R WCI   6
WILLOW GROVE   NOT AVBL
NORTH PHILA    CLEAR     21   1  41 W15G24    30.26R WCI   8
PHILADELPHIA   CLEAR     21  -1  38 W10       30.27R WCI  10
$$



USA.gov is the U.S. government's official web portal to all federal, state and local government web resources and services.